Wind_Speed
41 39 38 37 38 39 40 40 42 43 42 41 39 36 32 31 30 29 26 26 28 31 32 31 30 30 28 26 24 24 25 26 25 25 26 25 24 23 23 23 23 23 22 22 22 22 22 22 22 22 21 21 21 21 21 20 20 20 20 21 21 22 23 23 25 26 24 23 22 20 19 18 18 18 19 20 19 18 18 18 19 19 20 21 22
42 40 39 37 37 38 38 40 43 43 42 41 40 39 36 32 31 31 29 27 28 31 31 31 31 31 30 27 25 25 26 26 26 26 25 25 24 24 23 23 23 23 23 23 23 22 22 22 22 22 21 21 21 21 21 21 21 21 20 21 22 23 23 24 25 25 23 22 21 19 19 18 18 18 18 19 18 19 19 19 19 20 20 21 22
43 41 40 37 36 37 39 42 43 42 41 39 38 39 38 34 32 32 31 29 29 31 31 30 31 33 31 29 26 26 27 27 26 26 25 25 24 24 24 24 24 24 23 23 23 22 22 22 22 22 22 22 22 22 22 22 22 21 21 22 23 23 24 24 23 23 22 21 20 19 18 18 18 18 18 18 17 18 19 20 20 20 20 21 22
44 42 41 38 36 38 40 43 43 40 39 38 37 38 38 36 34 33 33 32 30 31 31 30 31 33 33 31 28 27 28 27 26 26 25 25 25 25 25 25 25 24 24 23 23 23 23 23 22 23 23 23 22 23 23 23 23 22 23 24 24 25 26 24 21 21 21 20 19 19 18 17 18 19 18 17 16 17 19 20 21 20 20 21 22
45 42 42 39 37 39 40 42 43 40 38 37 37 36 37 37 35 34 34 34 32 32 32 30 31 32 33 32 29 28 28 28 27 26 25 26 26 26 26 26 26 25 24 24 23 23 23 23 23 23 23 23 23 23 24 23 23 23 24 26 27 28 26 22 19 20 20 19 18 18 17 17 18 18 18 17 16 17 18 19 21 21 21 21 22
46 44 43 40 39 39 39 40 41 40 37 37 36 36 36 36 35 34 35 36 35 33 32 31 30 31 34 33 30 29 28 28 27 27 26 26 27 26 26 26 26 26 25 24 24 24 23 23 23 23 23 23 23 24 24 23 23 24 25 27 29 29 25 20 18 19 19 18 18 17 17 17 18 17 16 16 17 17 18 18 19 20 22 23 23
47 46 44 41 40 40 40 39 40 40 38 37 36 35 35 35 35 35 36 37 37 34 32 31 30 31 34 35 32 30 29 29 28 27 27 27 27 27 27 27 27 27 25 24 24 24 24 24 24 24 23 23 23 23 23 22 23 24 25 26 27 27 24 20 19 19 17 17 18 17 17 17 17 17 16 16 16 17 18 18 18 19 20 21 23
50 48 45 41 40 40 41 40 41 41 41 38 35 34 34 34 35 36 37 38 38 36 33 31 30 32 35 36 34 32 30 30 29 28 28 27 27 27 27 28 28 27 26 25 25 25 24 25 25 24 23 22 22 22 22 22 23 23 25 25 25 24 21 19 19 18 17 18 17 17 17 17 16 16 15 16 16 17 17 18 18 19 19 20 21
52 49 46 43 40 39 41 42 42 43 43 38 34 34 35 36 37 37 38 39 40 38 35 32 31 33 35 36 36 33 31 30 30 29 28 27 27 27 28 28 29 28 27 27 26 25 25 25 25 23 22 22 21 22 22 23 23 24 24 24 23 21 20 20 19 18 17 17 17 17 17 16 16 15 15 15 16 17 17 18 18 18 19 20 21
53 51 49 45 41 40 41 42 42 43 42 38 35 35 37 38 39 39 39 40 41 39 37 34 32 33 35 37 37 34 32 31 30 30 29 28 28 28 28 29 29 29 28 27 26 26 25 25 25 23 22 22 21 22 23 23 24 24 24 23 21 19 19 20 19 18 17 17 17 16 16 16 16 15 15 15 15 16 17 17 18 18 19 20 21
51 52 51 47 45 44 43 42 43 42 40 38 36 36 38 39 40 41 41 41 42 41 38 36 33 33 35 38 38 36 32 32 31 30 30 29 29 29 29 29 30 29 28 27 27 26 26 26 25 24 23 22 22 22 23 24 24 23 23 21 20 19 19 20 19 18 17 17 17 17 16 16 16 15 15 15 14 15 16 16 17 18 19 20 21
49 52 52 50 49 48 46 43 43 42 40 36 34 34 36 39 41 42 42 42 42 41 39 37 34 33 34 38 39 36 33 32 33 32 30 30 30 30 29 30 30 29 28 28 27 26 26 26 25 24 23 23 22 23 23 23 22 22 21 20 19 19 19 19 18 17 17 18 17 17 16 16 16 15 15 15 14 14 15 15 16 17 18 19 20
47 49 51 52 53 51 48 45 43 42 40 36 33 33 35 38 42 43 42 42 43 42 39 37 34 32 34 38 39 37 34 33 34 33 31 31 31 31 30 30 30 29 29 28 27 27 27 26 25 25 24 23 23 24 24 22 20 20 20 20 19 19 19 19 18 18 18 18 18 17 16 16 16 15 15 14 14 14 14 15 16 17 18 19 20
44 46 49 52 55 53 51 48 45 44 43 39 37 35 35 38 42 43 42 43 43 42 39 37 34 32 33 37 39 38 35 35 35 34 31 31 32 31 31 30 30 30 29 28 28 27 27 27 26 25 24 24 24 24 23 21 20 20 21 21 20 20 19 18 18 18 19 19 18 17 16 16 16 16 15 14 14 14 14 15 15 16 18 19 20
44 45 47 50 54 55 54 50 47 46 45 42 39 37 36 38 42 42 43 43 43 42 40 38 35 32 32 36 39 39 37 36 36 34 32 31 32 32 31 30 30 30 29 29 28 28 28 27 27 26 25 24 25 25 23 22 21 21 22 22 21 20 20 18 18 19 19 18 18 17 16 16 16 16 15 15 14 14 14 15 15 16 17 18 20
44 45 48 51 54 56 55 52 50 49 47 43 41 39 37 39 42 43 43 43 43 42 39 37 35 32 32 35 38 40 39 37 37 34 32 32 33 32 31 31 31 30 29 29 28 28 28 28 28 27 26 26 25 24 23 22 21 21 22 22 21 20 20 19 18 19 19 18 18 17 16 16 16 16 16 15 14 14 15 15 15 16 17 18 20
44 46 48 52 55 56 57 55 53 51 49 47 44 41 38 40 42 43 43 43 43 41 38 36 35 33 33 35 38 40 40 38 36 35 33 32 32 31 31 32 32 31 30 29 28 28 29 29 28 28 28 27 26 24 24 23 22 21 22 21 20 20 19 19 19 19 19 18 18 17 16 16 16 16 16 16 15 15 15 15 16 17 18 18 20
41 47 48 51 54 56 58 59 56 54 53 50 46 43 40 40 42 43 43 43 42 39 35 34 34 34 33 35 38 41 40 38 37 35 34 33 31 31 32 34 35 33 31 30 29 29 29 29 29 29 28 27 26 25 24 23 22 22 22 21 19 18 18 18 19 19 18 18 18 17 16 16 16 17 17 16 16 16 15 16 17 18 18 19 20
33 42 46 47 50 53 56 58 58 57 55 50 47 45 41 39 41 42 42 41 39 36 34 33 33 33 32 34 38 41 41 38 37 35 34 33 31 31 34 37 37 34 32 30 29 28 29 29 29 29 29 28 26 25 24 23 23 23 22 20 18 18 19 19 19 19 18 18 17 17 17 16 17 17 17 17 17 16 16 16 17 18 18 19 21
25 34 41 44 47 50 52 52 53 53 52 48 46 44 40 39 41 41 40 38 37 35 34 33 33 33 32 33 38 42 41 39 37 35 34 34 32 33 36 38 38 36 33 31 29 28 29 29 29 30 30 28 25 24 24 23 23 23 22 22 19 19 20 20 20 19 18 17 17 16 17 17 17 18 18 17 17 17 17 17 18 18 19 19 20
21 27 37 43 45 46 46 46 46 46 46 46 45 42 39 38 39 38 37 37 36 35 35 34 34 34 33 34 37 39 39 38 36 35 35 34 34 35 36 37 38 37 34 30 28 28 29 30 31 30 29 26 24 23 23 23 23 23 23 23 20 20 20 20 20 19 18 17 16 16 17 17 17 18 19 18 18 17 17 18 19 19 20 20 21
22 26 34 40 42 42 42 44 44 44 45 45 42 40 38 38 38 37 37 37 36 36 36 35 36 36 36 36 38 37 36 35 35 35 35 35 35 36 37 36 36 36 34 29 27 28 29 31 31 29 27 24 23 23 24 24 24 25 25 23 21 20 20 19 19 19 17 16 16 16 17 17 18 19 19 19 19 18 18 18 19 20 20 21 21
24 26 31 36 40 41 42 43 44 44 44 43 40 39 39 39 39 38 38 37 36 35 35 36 37 37 37 38 39 38 37 37 36 36 36 35 36 37 38 36 34 35 34 30 28 29 30 31 30 28 26 24 23 24 24 25 25 26 25 23 21 20 19 18 18 18 16 16 16 16 16 17 18 19 19 19 19 19 19 19 19 20 21 22 22
25 26 28 32 36 39 41 42 43 43 42 42 41 40 40 39 39 38 37 36 34 32 32 33 36 36 37 39 41 41 40 40 39 38 36 35 36 38 39 37 34 34 34 32 29 30 31 31 29 28 25 24 24 25 25 25 25 25 24 21 20 19 18 18 18 17 16 16 16 16 16 17 19 20 20 20 19 20 20 20 20 21 22 22 22
26 27 27 28 31 36 40 42 43 44 44 43 43 41 40 39 38 37 36 34 31 29 30 32 33 34 37 41 43 43 43 43 41 39 37 36 37 39 40 38 34 33 34 32 30 31 32 31 29 28 26 25 26 26 25 24 24 23 21 19 19 18 18 19 18 17 16 16 16 16 16 18 19 20 20 20 20 20 20 21 21 21 22 22 22
25 26 27 28 30 35 40 43 45 46 45 44 42 40 38 37 36 34 33 31 29 30 32 33 32 32 36 41 44 45 47 45 41 38 37 37 38 40 41 39 35 33 32 31 32 33 33 31 30 29 28 27 27 27 25 23 21 19 17 17 17 17 17 18 18 17 17 17 17 16 17 18 19 20 20 19 20 20 20 20 21 21 21 21 21
25 26 28 29 32 37 42 45 47 46 43 41 39 37 36 35 34 32 31 30 31 33 33 34 33 33 35 39 43 47 47 44 40 38 38 38 38 40 41 40 35 30 29 31 34 34 33 32 31 30 28 27 27 27 25 22 18 15 15 16 17 16 16 18 19 19 18 18 17 16 17 18 20 20 20 20 20 20 20 20 20 20 21 21 20
25 25 27 30 34 38 41 43 43 41 39 38 37 36 35 35 33 31 29 29 30 31 31 31 31 33 35 37 40 43 44 41 39 39 38 37 37 39 41 39 33 29 29 31 33 32 31 31 30 28 27 26 26 26 24 20 18 16 16 17 17 17 17 19 20 19 18 17 17 17 17 18 19 20 20 20 20 20 20 21 20 20 21 21 20
28 27 27 30 33 36 38 37 37 36 36 35 35 34 34 34 32 31 29 28 28 28 27 27 29 30 33 36 38 40 40 39 38 38 37 37 37 37 38 36 31 30 32 31 30 29 30 29 28 26 25 24 23 22 20 19 18 17 17 17 17 18 19 20 20 19 18 17 17 17 17 18 19 20 20 20 20 20 20 20 20 21 21 20 19
31 31 30 31 32 33 34 34 34 35 34 34 35 36 36 36 34 33 31 30 30 29 28 29 29 30 32 36 38 38 36 35 34 34 35 36 37 36 36 33 29 31 34 32 29 29 29 29 27 25 23 22 21 19 18 18 19 18 18 18 18 19 19 19 19 19 18 17 17 17 17 18 19 20 20 20 20 20 20 20 20 21 21 20 19
31 33 34 34 34 34 34 33 34 35 36 36 37 38 37 37 36 35 34 34 34 33 31 31 32 31 31 33 35 35 34 33 33 32 31 33 34 34 34 32 31 33 34 32 30 30 29 26 23 22 22 21 20 19 19 19 20 19 19 19 18 18 19 19 19 19 18 17 17 17 18 19 19 20 20 20 20 20 20 20 21 21 20 20 19
26 29 32 33 34 35 35 35 36 37 37 38 38 38 38 38 37 35 34 34 34 33 32 32 32 32 32 31 31 32 33 34 35 34 33 33 33 34 34 32 31 31 32 32 32 30 26 22 20 21 21 20 19 19 20 20 21 20 20 19 19 18 19 19 20 21 20 19 18 18 19 20 20 20 20 20 19 19 19 20 20 20 20 20 19
21 24 28 30 32 33 35 37 38 39 39 39 39 39 38 38 36 34 34 34 34 34 34 34 34 35 34 32 31 32 34 35 36 36 35 35 35 35 33 32 33 33 34 34 33 30 25 21 20 20 20 20 20 21 22 22 22 21 20 20 19 19 19 21 22 22 21 20 19 19 20 20 20 20 19 19 19 20 20 20 19 19 20 19 17
20 22 25 28 30 32 34 36 37 38 38 38 38 37 36 35 34 34 35 36 36 36 37 37 37 37 36 34 34 36 38 38 38 37 37 38 39 37 35 35 37 38 37 35 33 29 26 24 23 22 21 22 23 23 23 24 24 22 21 21 20 20 21 22 23 22 21 20 20 21 21 20 20 19 18 19 20 21 21 20 18 19 20 19 15
25 25 25 27 30 32 34 35 36 37 37 36 35 35 35 35 35 36 37 38 39 38 38 38 39 38 37 36 36 39 41 41 40 41 41 42 42 40 38 39 40 40 37 34 30 27 27 27 27 25 25 25 25 25 25 25 25 23 21 21 21 21 22 22 22 22 22 21 22 22 20 19 19 19 19 19 20 20 21 20 19 19 20 18 13
28 28 28 29 30 32 34 36 37 38 37 36 35 35 36 36 37 38 38 39 40 38 36 36 37 37 36 35 36 40 41 41 42 44 44 42 40 39 39 39 38 35 31 28 25 24 26 27 27 27 28 27 26 26 26 27 26 23 21 20 20 21 22 23 22 22 23 23 22 21 20 19 19 19 19 18 18 19 20 20 19 20 20 19 15
28 29 30 32 32 32 32 34 36 38 38 38 38 38 39 39 40 40 40 41 39 35 34 35 37 38 37 36 37 40 41 40 40 42 42 40 39 39 39 37 33 29 26 24 24 25 25 26 27 29 29 28 27 26 26 26 25 23 21 21 21 21 22 23 22 22 22 22 21 19 18 17 18 18 17 17 17 18 18 19 19 20 21 19 17
29 29 31 33 34 34 34 34 34 35 37 38 39 39 39 39 38 37 39 40 38 35 36 38 40 41 42 41 40 41 40 37 36 36 36 37 38 38 37 33 29 27 26 26 26 25 25 26 28 29 28 27 28 28 27 25 25 24 23 22 22 22 23 23 22 21 21 20 19 17 15 15 16 17 17 17 17 17 18 18 19 20 20 19 17
29 30 31 33 35 36 36 36 36 37 37 38 39 39 39 38 38 37 38 38 38 38 38 38 39 42 45 45 42 39 34 32 31 32 33 34 34 33 31 28 27 26 25 24 22 22 22 24 25 26 27 27 28 27 25 23 23 23 23 22 22 22 21 20 20 19 18 18 16 15 14 15 15 16 17 18 18 18 18 18 19 20 20 19 18
22 25 29 32 34 36 37 38 38 38 38 38 39 38 38 38 38 37 36 36 37 39 39 38 39 42 44 42 37 33 29 28 29 30 31 31 30 28 26 25 25 24 22 21 21 21 23 24 23 24 25 27 26 24 23 21 21 22 22 21 21 20 19 18 17 17 16 16 15 14 14 15 16 17 17 18 18 18 19 19 20 20 19 19 18
12 16 21 25 29 32 34 36 37 38 39 39 39 39 39 40 38 36 35 36 37 38 38 38 37 36 34 30 28 27 26 26 26 27 27 26 26 25 25 24 24 24 24 24 24 25 27 26 24 22 24 24 23 20 19 18 18 19 19 19 19 19 18 17 16 16 16 16 15 15 15 16 16 17 17 18 18 19 19 19 20 20 19 19 18
8 11 15 19 22 25 27 29 32 34 36 37 38 37 38 38 36 34 34 36 35 36 37 36 33 30 27 26 26 26 25 24 24 24 24 24 25 26 26 26 26 26 26 26 26 27 27 25 23 22 22 21 19 17 16 16 16 17 17 18 19 19 19 17 16 15 16 16 15 16 17 17 16 17 18 18 18 19 19 19 19 19 19 19 18
5 7 9 11 14 19 22 25 28 30 31 32 34 34 35 36 36 35 33 31 29 32 36 35 32 30 29 28 28 28 27 27 27 26 26 26 27 28 29 30 31 29 28 27 27 27 25 23 22 21 20 19 18 16 16 15 16 16 17 18 19 19 19 18 17 16 16 16 17 17 17 16 16 17 17 18 18 18 18 18 18 19 19 19 18
3 2 3 5 8 10 10 12 19 25 27 27 27 26 26 28 30 31 29 27 28 32 33 31 29 29 29 30 30 30 29 29 28 27 26 26 27 28 30 32 32 30 27 26 26 25 24 22 20 19 19 19 18 16 16 16 16 16 17 17 18 18 18 18 18 17 17 18 18 18 17 16 17 17 18 18 18 18 18 18 18 18 19 18 17
3 4 2 2 5 7 8 8 6 10 17 20 20 20 22 25 27 28 28 28 29 29 29 28 28 28 29 29 30 30 29 28 27 25 24 25 26 27 28 28 26 24 23 23 24 24 23 21 20 19 20 20 19 16 16 17 17 16 16 16 17 18 18 18 18 18 18 19 19 18 17 17 18 18 18 18 18 18 18 18 18 18 18 17 17
4 3 2 1 2 4 7 9 10 9 11 14 14 14 16 19 21 22 24 24 24 25 26 27 28 29 28 27 27 26 25 26 26 25 24 24 25 25 24 23 22 22 23 23 23 23 23 22 21 21 23 23 20 18 17 18 17 16 16 16 17 18 19 19 19 19 19 19 19 19 18 18 19 19 19 19 19 18 18 17 17 17 17 17 17
2 2 2 2 3 3 5 6 6 7 7 7 7 10 13 14 16 18 20 21 22 23 24 25 26 26 26 25 24 23 22 23 23 22 22 23 23 23 22 21 21 21 22 21 21 22 22 22 22 22 24 24 22 19 18 18 17 17 17 18 19 19 19 20 20 20 20 20 20 19 18 19 19 20 20 20 19 19 18 17 17 17 17 16 17
1 1 1 0 1 3 3 3 3 3 3 2 2 4 7 10 11 13 15 18 20 20 21 22 23 23 23 23 23 24 24 22 20 18 19 21 21 20 20 19 19 19 19 20 20 20 20 20 20 21 22 22 21 20 19 18 17 18 18 18 19 19 19 19 19 19 19 19 19 19 19 19 20 21 21 20 20 20 19 18 18 17 17 17 17
1 1 1 1 2 5 7 6 4 2 1 1 3 4 6 7 9 10 12 14 16 18 18 19 20 21 22 23 24 25 24 22 19 18 18 19 18 18 18 19 19 18 18 19 20 19 18 18 19 18 17 17 18 18 17 16 16 17 17 17 17 18 18 18 18 19 19 20 20 21 21 21 21 22 22 21 20 20 19 18 18 18 17 18 18
1 1 1 3 4 3 3 3 2 1 2 1 3 5 6 8 9 10 11 13 15 16 16 16 17 17 18 20 21 22 21 18 17 17 18 18 18 19 20 20 19 18 17 18 19 19 19 18 18 16 15 16 16 16 16 16 17 16 16 16 17 18 19 19 20 21 21 22 23 24 23 23 22 22 21 21 20 20 19 18 18 18 18 19 19
1 1 1 1 2 3 3 3 2 2 2 2 4 5 6 6 7 9 10 11 13 14 14 15 15 15 15 15 16 17 18 17 18 19 20 20 19 19 18 18 17 17 16 17 18 19 18 18 17 16 15 16 16 16 16 16 16 16 16 16 17 19 20 22 23 24 24 26 26 26 25 24 22 21 20 19 19 18 18 19 19 18 19 19 20
Wind_Direction
235 235 236 237 238 236 235 235 236 240 244 245 245 245 245 244 240 239 241 241 239 239 239 241 243 246 249 252 256 257 257 257 258 257 257 259 263 264 264 261 260 260 261 262 262 262 263 266 268 268 266 267 269 271 272 273 276 282 287 290 290 289 288 289 291 295 297 295 294 294 293 293 294 296 298 299 301 302 305 310 313 313 313 312 313
237 237 237 238 238 236 234 233 234 237 240 243 244 244 245 246 243 240 240 241 241 239 240 241 243 245 247 250 254 255 256 257 257 258 258 260 263 264 263 261 259 259 260 261 261 260 262 265 267 266 266 268 270 271 272 273 277 283 287 289 288 286 286 288 291 294 293 291 291 290 290 291 292 294 297 299 302 305 308 311 313 312 310 309 311
239 239 238 238 237 235 232 231 232 234 238 241 243 244 245 246 245 242 239 241 241 240 241 242 243 245 246 248 251 253 255 256 257 258 258 260 263 264 262 260 257 258 260 261 260 259 261 265 267 266 267 268 270 271 272 274 278 283 286 287 285 284 283 283 286 289 289 287 287 287 288 290 291 294 297 299 303 307 309 311 311 309 308 308 311
239 239 237 236 235 234 231 228 230 234 237 241 244 245 245 245 246 243 239 240 242 240 241 242 243 245 246 247 249 252 254 255 256 257 257 260 262 262 260 258 256 257 259 261 260 259 262 266 268 268 268 269 270 272 274 276 280 284 286 285 282 279 277 277 280 284 285 284 284 286 286 288 291 295 298 301 305 308 309 309 309 308 308 309 311
239 238 237 236 235 232 228 226 229 235 239 241 244 246 246 245 245 243 239 239 241 241 240 242 244 246 247 247 248 251 253 254 255 255 255 258 260 261 259 256 255 256 258 260 260 261 263 266 268 269 269 270 272 274 275 278 281 284 284 284 282 278 276 279 283 282 281 281 282 284 285 286 290 295 300 304 307 307 307 307 308 309 310 311 313
237 237 237 238 237 232 227 226 230 236 239 241 243 245 245 245 245 242 238 238 240 241 241 242 244 247 247 246 247 249 251 252 253 254 254 256 259 260 258 256 254 255 257 259 260 261 263 266 268 270 271 273 274 276 278 280 282 283 285 287 287 286 285 288 285 279 278 280 280 282 283 286 291 296 301 305 306 307 306 307 308 309 311 314 315
235 237 237 239 239 233 229 229 232 236 239 241 242 243 243 243 244 241 237 237 238 240 241 242 245 247 246 245 246 248 249 251 253 253 254 254 258 260 258 256 254 254 256 258 260 262 264 266 268 270 273 275 277 278 279 280 281 284 287 290 292 294 293 287 279 276 277 278 279 280 282 285 292 296 301 303 304 305 306 307 308 309 311 313 313
235 238 238 237 237 233 230 231 233 235 239 242 243 242 240 240 241 239 236 235 237 239 240 242 244 245 245 244 245 247 248 250 252 253 253 253 256 259 257 255 253 253 254 256 258 261 264 266 268 270 274 276 277 278 278 280 282 285 289 293 293 293 290 283 278 277 277 277 278 279 281 285 291 295 300 302 302 304 305 307 309 311 311 311 310
235 237 237 235 234 231 229 231 233 236 239 241 241 239 237 236 236 235 233 233 235 237 239 242 243 244 244 243 244 246 247 249 252 252 252 252 254 257 256 254 252 252 253 255 258 261 264 266 267 270 273 275 275 276 277 280 282 286 291 294 293 290 286 283 281 280 277 276 277 278 280 284 289 292 296 299 302 305 306 308 310 312 312 311 310
236 237 237 234 232 231 230 230 232 235 238 240 240 237 234 233 232 232 231 230 233 236 237 240 243 243 242 242 243 245 245 248 251 251 251 251 252 255 255 253 252 252 253 254 257 260 263 265 267 269 272 273 274 276 278 281 283 286 290 293 291 287 284 283 282 279 276 276 277 277 278 282 287 290 293 297 301 304 306 309 311 312 313 312 310
237 238 237 235 232 233 232 231 231 234 237 240 240 237 235 233 230 229 228 228 231 234 236 239 242 243 242 241 242 243 244 247 249 250 250 250 250 253 254 253 252 252 253 255 257 260 262 264 266 269 270 272 274 277 280 282 283 286 289 290 288 285 283 283 281 277 277 278 277 274 275 280 285 288 291 295 299 303 305 307 310 312 312 311 310
238 238 238 236 235 234 232 230 231 234 237 239 239 238 236 232 229 228 226 225 229 233 235 237 241 244 242 240 241 242 243 244 247 249 249 248 249 252 253 253 253 254 254 255 256 259 261 263 266 267 269 272 275 278 281 282 284 286 288 288 286 284 283 282 279 276 276 277 274 271 273 280 285 287 290 294 298 302 305 306 309 311 312 311 310
236 237 238 237 236 235 232 231 231 233 236 238 240 242 240 233 228 226 224 223 228 232 234 236 240 243 242 240 240 242 242 242 246 248 248 248 248 250 253 254 255 255 256 256 257 259 261 263 264 266 268 271 274 278 280 282 286 290 291 289 286 283 283 281 277 275 277 276 272 270 273 280 285 287 290 293 298 303 305 306 309 311 312 312 312
234 234 236 237 237 235 232 231 230 232 236 239 242 247 245 234 228 225 223 223 227 232 233 235 239 243 243 240 239 240 240 241 244 247 248 249 249 249 252 254 255 257 258 258 258 259 260 262 262 264 266 269 273 277 279 282 288 291 293 292 288 284 283 280 275 276 278 276 271 269 273 279 285 287 289 292 297 301 303 306 309 311 312 312 313
234 233 234 235 236 234 232 232 231 231 236 240 244 249 246 233 225 224 222 223 227 232 233 234 236 240 241 240 238 238 239 240 242 246 247 249 249 249 250 253 256 258 259 259 259 259 259 260 261 263 265 267 272 275 277 281 285 288 291 292 288 285 283 278 275 278 279 275 270 269 273 279 284 287 288 291 295 298 301 304 307 309 310 311 314
233 233 232 233 235 234 233 233 232 232 236 240 245 250 245 231 223 223 222 223 228 231 232 233 237 240 242 239 237 237 238 238 241 245 246 247 248 249 249 252 254 256 259 260 260 259 259 260 261 262 263 266 270 273 276 279 282 285 289 288 284 282 280 277 276 279 278 272 268 269 273 278 283 286 287 289 293 296 299 302 305 308 309 312 317
230 230 231 232 233 234 234 234 233 234 237 240 245 249 241 228 224 223 221 223 228 232 233 233 237 243 243 239 236 236 237 238 240 243 244 246 248 248 248 250 252 254 257 259 260 260 260 260 261 262 263 265 268 272 275 277 278 282 286 286 282 278 276 275 277 278 275 270 267 269 272 278 282 284 286 288 291 295 298 302 306 308 310 314 318
232 228 228 229 230 231 231 232 232 234 236 239 245 245 236 228 226 223 221 225 230 233 233 234 239 244 243 238 236 235 237 238 240 242 244 245 247 246 245 247 249 250 252 255 258 261 262 262 262 263 264 266 268 270 273 274 277 281 285 287 284 278 273 273 275 275 273 270 269 269 272 277 282 284 285 287 290 294 298 301 305 307 310 313 316
237 231 228 228 228 228 227 228 230 232 235 239 242 239 232 229 227 223 222 227 231 232 234 236 242 245 242 236 233 234 235 237 239 242 244 245 246 244 243 245 246 248 251 254 258 262 265 265 264 264 265 266 267 268 270 272 277 282 285 289 288 280 273 271 272 273 271 271 271 271 273 278 282 284 285 288 290 293 297 299 302 305 308 311 314
242 235 230 227 225 224 223 224 227 231 235 236 235 232 230 228 224 222 225 228 230 233 236 238 242 244 241 234 231 233 234 235 238 242 243 243 243 243 244 245 246 247 248 251 257 263 267 267 265 264 266 266 265 266 268 270 274 279 284 288 284 276 270 269 271 272 269 269 272 273 275 279 282 284 286 287 289 292 295 298 301 304 307 310 313
245 236 229 224 221 220 220 222 225 228 228 228 228 227 226 223 221 222 226 228 231 235 238 239 240 241 239 233 230 233 235 236 239 242 242 242 242 243 246 247 248 248 247 247 253 260 265 267 266 266 266 264 264 265 266 268 272 277 284 284 279 272 270 270 272 272 270 271 275 277 278 281 283 285 286 287 289 290 293 296 300 304 307 310 312
246 236 227 221 218 217 216 218 220 221 221 223 224 222 218 217 219 222 225 228 233 236 238 239 239 238 236 232 229 233 237 238 240 242 243 243 244 245 248 248 248 250 249 245 249 257 263 266 265 264 263 262 264 267 268 268 272 277 280 278 272 270 269 268 269 270 271 275 278 280 280 282 284 285 286 287 289 290 292 295 300 305 308 309 313
243 235 226 220 216 214 213 214 215 218 221 222 219 215 213 216 220 223 226 229 232 234 236 238 238 237 234 229 227 230 234 236 238 240 240 242 244 246 247 247 247 249 247 245 246 253 260 263 261 259 259 262 267 268 267 268 272 275 275 271 266 265 264 262 263 266 271 276 279 281 281 281 283 285 286 287 289 291 295 297 301 305 307 309 313
241 236 226 220 218 216 215 216 217 218 219 217 213 211 214 218 221 223 226 229 231 233 236 240 240 237 233 227 224 225 229 232 235 235 236 239 243 245 246 247 247 246 244 242 244 250 258 260 257 256 259 263 266 266 266 269 272 272 269 264 260 259 256 254 256 261 269 275 279 280 280 280 283 284 286 288 289 292 296 298 301 304 304 307 312
240 237 228 222 220 219 218 218 217 215 213 211 211 212 215 218 220 222 226 229 232 234 236 238 239 235 230 226 223 223 226 230 231 231 235 240 243 243 244 245 245 242 240 240 243 250 257 258 255 256 259 262 263 265 270 273 270 265 264 262 260 256 252 250 254 260 268 273 276 278 279 280 282 284 286 288 288 290 294 296 298 300 301 306 311
238 235 229 224 221 219 216 213 211 208 207 208 210 213 215 219 221 223 227 231 234 237 237 238 238 234 229 226 223 222 225 228 229 232 238 243 243 242 241 241 241 238 236 238 242 248 254 256 256 257 259 260 261 265 271 272 266 263 266 268 266 260 253 251 253 258 264 270 274 277 279 280 282 284 286 286 286 289 292 293 295 297 300 304 308
230 228 223 220 217 213 209 205 204 204 204 207 210 213 216 221 224 226 230 233 237 240 241 240 239 235 231 228 226 223 224 226 230 236 241 243 241 240 239 240 238 231 228 233 241 247 253 256 258 259 258 258 260 264 270 270 266 266 269 269 266 261 253 249 249 253 262 269 273 276 278 279 282 285 286 285 285 288 290 290 293 296 297 300 304
213 213 210 208 205 203 202 202 202 203 205 208 211 215 219 225 229 232 234 238 242 245 247 248 248 244 238 234 228 224 223 225 232 240 244 242 238 237 239 241 236 223 222 233 242 248 254 256 256 256 256 257 260 264 266 265 262 262 264 266 265 260 251 247 247 252 262 270 272 274 276 279 282 283 283 284 285 286 287 289 291 293 294 297 301
200 199 199 199 198 198 201 203 204 206 208 211 216 221 226 230 233 234 236 239 244 249 251 254 254 250 243 236 231 227 226 229 236 242 242 237 236 241 248 249 237 223 226 238 246 250 252 252 252 254 257 260 262 263 262 258 256 258 261 264 265 261 253 249 249 253 261 267 270 273 276 278 279 280 282 283 283 283 285 288 290 292 293 295 299
197 197 199 201 202 204 206 207 209 211 213 216 220 225 228 230 232 236 238 238 240 244 247 249 250 248 243 237 234 232 232 234 238 240 235 232 235 242 248 248 237 227 230 239 246 248 248 248 251 255 259 261 264 264 262 258 256 257 260 261 263 263 258 253 250 252 258 265 269 272 275 276 277 279 281 282 282 283 284 287 288 290 292 294 296
200 201 203 204 206 208 209 210 213 215 215 217 220 223 227 231 235 239 240 238 237 239 241 244 246 246 243 237 232 231 233 234 235 233 231 231 235 237 237 237 233 227 230 237 242 243 245 249 253 257 258 259 262 264 263 260 257 257 260 260 262 264 262 257 254 254 257 262 266 269 272 273 273 276 278 280 282 284 285 287 288 289 291 293 293
208 207 207 207 206 207 208 210 213 215 216 217 218 221 226 231 235 236 237 238 238 240 243 244 243 240 236 231 227 226 228 229 228 227 226 228 231 232 232 234 233 230 232 236 238 240 243 247 252 257 259 260 263 263 261 260 258 257 258 259 262 264 263 260 256 254 255 258 262 267 270 270 271 274 276 280 283 284 284 285 286 288 291 292 290
215 215 213 210 208 209 211 213 215 217 217 218 219 222 226 229 232 235 237 240 241 241 242 241 238 235 232 228 222 218 218 221 224 224 222 222 224 225 226 228 232 235 236 237 239 242 243 246 253 262 264 263 263 261 259 258 257 257 259 261 265 267 264 260 257 256 256 257 261 266 268 268 271 275 278 282 285 284 283 284 283 286 289 289 288
220 220 219 216 214 214 216 218 219 220 220 219 221 224 227 231 235 238 241 242 242 241 240 238 235 233 231 227 221 217 218 221 222 221 217 216 218 219 220 222 227 233 236 237 240 244 247 250 257 264 265 264 263 261 260 260 259 260 262 265 268 270 267 265 263 260 257 257 260 265 268 269 274 279 281 284 286 284 283 283 281 283 286 284 283
225 224 223 222 222 222 223 225 226 227 227 226 226 229 232 235 238 239 241 242 241 239 238 236 232 231 231 227 222 220 222 224 223 220 216 214 213 214 216 218 223 228 233 236 240 246 252 255 258 261 262 263 262 261 261 260 260 261 264 268 272 274 272 269 267 262 257 256 260 266 270 272 275 279 279 280 283 284 283 281 279 281 283 282 279
232 231 229 229 228 228 229 231 233 234 234 234 233 234 236 237 238 239 239 240 239 236 233 230 227 227 229 228 223 221 222 223 224 222 217 212 210 211 213 216 222 227 232 239 246 253 257 259 259 259 259 260 262 262 261 259 258 259 264 271 276 277 274 270 267 262 258 258 261 267 271 272 273 277 278 276 278 282 281 279 278 279 280 279 277
237 236 235 235 235 234 235 236 237 238 237 235 235 236 237 238 239 240 239 240 240 235 230 227 225 224 225 225 221 218 218 220 223 223 216 209 209 211 213 218 224 228 235 245 251 251 251 253 254 255 256 259 261 261 259 258 257 259 263 270 276 276 274 271 269 265 261 261 264 269 273 272 272 276 278 277 277 279 278 276 276 277 279 279 276
243 242 240 239 239 240 241 241 241 241 240 239 239 239 239 239 240 241 242 243 242 237 230 228 227 225 224 223 220 217 216 217 219 218 212 208 210 213 216 220 225 228 235 243 245 243 244 246 249 252 256 259 260 259 256 256 258 261 264 269 273 274 274 273 272 268 263 262 265 269 272 272 273 275 276 276 277 276 275 276 275 275 276 277 274
245 245 243 241 240 239 240 240 240 240 241 242 242 242 241 241 241 241 241 241 239 233 228 225 223 221 220 221 222 222 220 216 212 209 209 211 214 215 217 221 225 227 231 237 239 241 245 249 252 256 257 256 257 258 259 261 263 264 266 269 272 274 275 274 270 265 259 258 261 265 268 270 272 272 273 274 275 275 274 274 274 273 275 277 275
240 241 242 243 242 240 239 239 239 238 239 240 241 241 241 241 239 238 237 236 232 228 226 223 220 218 218 219 221 221 215 208 205 207 211 214 216 216 217 220 223 225 230 237 241 243 244 246 251 257 256 253 253 257 262 266 267 266 267 269 271 273 273 269 264 257 252 251 255 259 263 266 268 270 272 273 274 274 272 270 271 273 274 276 274
245 239 237 238 238 239 240 240 240 240 240 240 240 239 238 238 237 236 235 234 230 227 225 222 217 213 210 208 206 207 207 205 205 208 211 213 215 217 218 218 221 227 232 237 242 245 244 242 247 254 256 251 249 253 259 264 264 263 264 266 268 269 269 266 261 253 247 247 251 255 259 263 266 270 273 273 273 272 270 269 270 272 274 275 271
267 249 240 237 236 236 237 237 239 239 239 237 237 235 235 235 232 230 232 236 233 225 217 208 199 196 195 191 192 199 205 205 203 203 205 208 212 215 217 219 226 231 234 236 240 244 246 247 250 252 250 245 243 248 255 259 260 263 265 265 265 266 267 265 261 254 249 249 250 252 256 262 266 270 272 272 271 270 269 269 270 271 273 274 270
285 244 230 229 231 233 235 236 237 237 236 236 236 234 233 232 227 223 226 230 223 208 198 191 186 188 190 189 192 200 204 202 200 201 204 209 213 217 221 225 227 229 231 235 240 243 248 252 250 243 236 234 238 246 254 258 261 265 266 264 263 264 264 264 262 259 254 252 251 252 256 262 268 271 271 270 269 268 267 267 268 269 271 272 269
329 279 215 193 190 196 211 227 232 230 227 225 221 215 210 210 209 206 203 199 190 185 184 185 185 185 184 185 194 204 207 205 204 205 208 214 219 224 230 234 233 230 231 238 245 249 252 250 240 230 226 231 239 247 253 256 258 261 263 263 261 261 261 262 262 258 254 253 253 253 257 263 267 270 270 268 266 265 264 263 264 267 269 268 266
10 360 333 210 174 150 123 107 136 182 188 187 186 180 172 173 179 182 181 179 179 180 182 182 183 184 188 195 205 212 212 209 207 207 210 218 225 232 238 242 240 236 238 246 252 253 249 239 228 224 227 232 237 243 246 248 252 256 258 258 257 257 257 257 255 253 251 251 251 252 256 261 266 267 266 264 262 261 261 261 261 264 265 264 262
7 14 29 72 114 130 122 104 94 104 128 147 163 169 164 164 170 173 172 173 179 184 187 189 192 196 202 210 216 220 219 219 219 217 217 222 230 235 238 240 240 242 247 252 252 250 243 234 228 229 231 232 234 239 243 245 249 252 255 257 257 255 254 253 253 252 250 248 248 251 256 262 266 266 264 262 260 258 257 257 258 259 260 260 258
16 21 41 87 102 120 130 118 96 86 93 113 139 153 157 163 170 172 174 180 188 194 198 202 204 206 210 216 221 225 227 228 227 223 221 224 228 231 234 238 243 247 249 247 244 243 239 233 232 236 239 237 235 236 240 243 247 252 258 261 259 256 254 254 254 252 250 248 250 254 260 265 267 265 262 259 257 255 254 253 253 255 255 254 253
298 20 10 341 167 159 157 150 133 110 91 85 136 165 174 183 188 190 193 199 203 206 209 210 211 213 217 220 222 224 228 232 230 225 225 228 229 229 233 237 241 243 244 241 239 238 237 233 235 244 248 242 235 234 239 246 252 258 261 261 259 258 257 255 253 251 251 252 254 258 262 265 266 266 263 259 255 253 251 250 250 251 250 249 250
286 226 256 236 176 151 147 152 158 146 120 153 185 197 199 199 202 205 208 210 214 219 221 221 220 221 223 224 223 222 227 232 233 230 230 232 231 230 231 232 233 242 251 246 236 232 233 236 240 246 248 240 234 238 248 257 263 264 263 259 258 257 255 252 251 252 255 258 260 261 263 266 266 264 261 257 253 250 249 247 247 248 247 246 247
3 349 255 231 219 197 172 167 185 268 303 237 185 186 190 192 197 202 203 204 210 214 215 214 214 214 215 219 219 219 220 225 227 225 227 230 231 232 232 231 234 245 252 244 231 227 232 237 239 240 238 234 236 245 257 263 265 264 260 255 253 252 251 251 253 256 259 262 265 266 268 268 265 261 257 254 252 250 247 244 243 244 245 245 245
274 311 296 241 242 258 277 285 277 267 259 222 186 182 183 186 193 201 205 207 211 212 209 205 203 201 201 206 211 211 214 220 224 225 227 230 233 235 235 236 239 245 244 235 228 227 232 236 239 239 238 237 241 250 258 261 260 259 257 255 255 256 258 260 261 263 265 266 268 268 268 266 260 255 253 252 251 248 246 243 241 242 243 244 246
Height
3106 3108 3110 3112 3114 3116 3119 3121 3123 3124 3126 3128 3130 3132 3134 3135 3136 3137 3137 3137 3137 3138 3138 3139 3140 3141 3142 3143 3143 3143 3144 3144 3144 3145 3146 3146 3147 3147 3148 3148 3148 3148 3149 3149 3149 3149 3149 3150 3149 3149 3149 3149 3148 3148 3148 3148 3148 3147 3146 3146 3145 3144 3143 3143 3141 3139 3139 3137 3136 3136 3135 3134 3133 3132 3130 3129 3127 3125 3124 3124 3122 3121 3119 3118 3116
3102 3104 3107 3108 3110 3112 3115 3116 3118 3120 3121 3124 3126 3128 3130 3131 3132 3133 3134 3134 3134 3135 3135 3136 3137 3138 3139 3140 3141 3141 3141 3141 3142 3142 3143 3144 3145 3145 3145 3145 3146 3146 3146 3146 3147 3147 3147 3147 3147 3147 3146 3146 3146 3146 3146 3146 3145 3145 3144 3143 3143 3142 3141 3140 3138 3137 3136 3135 3134 3134 3133 3131 3131 3130 3129 3127 3125 3123 3122 3121 3121 3119 3118 3117 3115
3098 3100 3102 3104 3106 3108 3110 3111 3113 3115 3117 3119 3122 3123 3125 3127 3128 3129 3130 3131 3131 3132 3132 3133 3134 3135 3136 3137 3138 3138 3138 3138 3139 3140 3141 3141 3142 3142 3143 3143 3143 3143 3144 3144 3144 3145 3145 3145 3144 3144 3144 3144 3144 3144 3143 3143 3143 3142 3142 3141 3140 3139 3138 3137 3136 3134 3134 3133 3132 3131 3130 3129 3128 3128 3127 3125 3124 3122 3120 3119 3119 3118 3116 3115 3113
3093 3095 3097 3099 3101 3103 3104 3106 3109 3111 3114 3116 3118 3119 3121 3123 3124 3125 3127 3128 3128 3129 3129 3130 3131 3132 3133 3134 3135 3135 3135 3136 3137 3137 3138 3138 3139 3140 3140 3140 3141 3141 3141 3142 3142 3142 3142 3142 3142 3142 3142 3141 3141 3141 3141 3141 3140 3140 3139 3138 3137 3135 3134 3133 3132 3132 3131 3130 3130 3129 3128 3127 3126 3125 3124 3123 3122 3121 3119 3118 3117 3116 3114 3113 3111
3088 3090 3092 3095 3096 3098 3100 3102 3105 3107 3110 3112 3114 3115 3116 3118 3120 3122 3123 3124 3125 3126 3126 3127 3127 3128 3129 3130 3131 3132 3133 3133 3134 3134 3135 3135 3136 3137 3137 3138 3138 3139 3139 3139 3139 3140 3140 3140 3139 3139 3139 3139 3139 3139 3138 3138 3138 3137 3136 3134 3133 3132 3131 3130 3130 3129 3129 3128 3128 3127 3126 3125 3124 3123 3122 3121 3120 3119 3118 3116 3115 3113 3112 3111 3109
3083 3085 3087 3090 3092 3094 3096 3098 3101 3104 3106 3108 3109 3111 3112 3114 3116 3117 3119 3120 3121 3122 3123 3123 3124 3125 3126 3127 3128 3129 3130 3130 3130 3131 3132 3132 3133 3134 3135 3135 3136 3136 3136 3137 3137 3137 3137 3137 3137 3137 3136 3136 3136 3136 3136 3136 3135 3134 3133 3131 3131 3129 3129 3128 3128 3127 3127 3126 3125 3125 3124 3123 3122 3121 3120 3119 3118 3117 3117 3115 3114 3112 3110 3108 3106
3078 3080 3082 3085 3087 3090 3092 3095 3097 3100 3101 3103 3104 3106 3107 3109 3111 3113 3114 3116 3117 3119 3119 3120 3121 3122 3123 3124 3125 3126 3127 3127 3127 3128 3128 3129 3130 3131 3132 3132 3133 3133 3134 3134 3134 3134 3134 3134 3134 3134 3134 3134 3134 3133 3133 3133 3132 3131 3130 3129 3128 3128 3127 3126 3126 3125 3124 3124 3123 3123 3122 3121 3120 3118 3117 3117 3116 3116 3115 3114 3113 3111 3109 3107 3105
3073 3075 3078 3080 3083 3086 3089 3091 3093 3095 3096 3098 3100 3101 3103 3104 3106 3108 3110 3111 3113 3115 3115 3116 3117 3118 3119 3120 3121 3122 3123 3124 3124 3124 3125 3127 3127 3128 3129 3129 3130 3130 3131 3131 3131 3131 3132 3131 3131 3131 3131 3131 3131 3131 3130 3130 3129 3128 3128 3127 3126 3125 3124 3124 3123 3123 3122 3122 3121 3120 3119 3119 3117 3116 3115 3115 3114 3114 3113 3112 3111 3110 3108 3106 3105
3067 3070 3072 3075 3078 3081 3084 3086 3088 3090 3092 3093 3095 3096 3098 3100 3101 3103 3106 3107 3109 3110 3111 3112 3113 3114 3115 3116 3117 3118 3120 3120 3121 3121 3123 3124 3125 3126 3126 3126 3127 3127 3128 3128 3128 3129 3129 3129 3129 3129 3129 3128 3128 3128 3127 3127 3126 3125 3125 3124 3123 3122 3122 3122 3121 3121 3120 3120 3119 3118 3117 3116 3115 3114 3113 3113 3112 3112 3111 3110 3109 3108 3106 3105 3103
3062 3064 3067 3070 3074 3076 3078 3080 3083 3085 3087 3089 3090 3092 3093 3095 3097 3099 3101 3103 3104 3106 3107 3108 3109 3110 3111 3112 3113 3115 3116 3117 3117 3118 3120 3121 3122 3122 3123 3123 3124 3124 3125 3125 3126 3126 3126 3126 3126 3126 3126 3126 3125 3125 3124 3124 3123 3122 3122 3121 3120 3120 3119 3119 3119 3118 3118 3117 3117 3116 3115 3114 3113 3112 3112 3111 3110 3110 3109 3108 3107 3106 3105 3103 3101
3056 3058 3061 3066 3069 3070 3072 3075 3078 3080 3082 3084 3085 3087 3088 3090 3092 3094 3096 3098 3100 3101 3102 3103 3105 3106 3107 3108 3109 3111 3113 3114 3114 3115 3116 3117 3118 3119 3120 3120 3121 3121 3122 3123 3123 3123 3124 3123 3123 3123 3123 3123 3123 3122 3121 3121 3120 3120 3119 3119 3118 3117 3117 3116 3116 3116 3116 3115 3115 3114 3113 3112 3112 3111 3109 3109 3108 3107 3107 3106 3105 3104 3103 3101 3100
3051 3053 3056 3061 3063 3064 3067 3070 3073 3075 3077 3079 3081 3082 3084 3085 3087 3089 3092 3094 3095 3096 3098 3099 3101 3102 3103 3104 3105 3108 3109 3110 3111 3111 3113 3114 3115 3116 3117 3117 3118 3118 3119 3120 3120 3120 3121 3121 3121 3121 3120 3120 3120 3119 3119 3118 3117 3117 3117 3116 3115 3115 3114 3114 3114 3114 3113 3113 3112 3111 3111 3110 3110 3109 3108 3106 3106 3105 3104 3103 3102 3102 3100 3099 3098
3045 3047 3051 3054 3056 3059 3062 3065 3068 3071 3073 3074 3076 3077 3079 3081 3083 3084 3087 3089 3090 3091 3093 3095 3096 3098 3099 3100 3102 3104 3106 3107 3107 3108 3109 3110 3111 3112 3113 3114 3115 3116 3116 3117 3117 3118 3118 3118 3118 3118 3118 3118 3117 3116 3116 3115 3115 3115 3114 3114 3113 3112 3112 3111 3111 3111 3111 3110 3110 3109 3109 3108 3107 3107 3106 3105 3104 3102 3101 3101 3100 3099 3098 3097 3095
3038 3042 3045 3047 3050 3054 3057 3060 3063 3066 3068 3069 3071 3073 3074 3076 3078 3080 3082 3084 3085 3087 3089 3091 3093 3094 3095 3097 3098 3100 3102 3103 3103 3104 3106 3107 3108 3109 3110 3111 3112 3113 3113 3114 3114 3114 3115 3115 3115 3115 3115 3115 3114 3114 3113 3113 3113 3113 3112 3111 3111 3110 3109 3109 3109 3109 3108 3108 3107 3107 3106 3106 3105 3104 3104 3103 3102 3100 3099 3098 3097 3096 3096 3094 3093
3033 3036 3039 3041 3044 3048 3051 3054 3058 3061 3062 3064 3066 3068 3070 3072 3074 3075 3077 3079 3081 3083 3085 3087 3089 3090 3091 3093 3094 3096 3097 3099 3100 3101 3102 3103 3104 3106 3107 3108 3109 3109 3110 3110 3111 3111 3111 3111 3112 3112 3112 3112 3111 3111 3111 3110 3110 3110 3109 3109 3108 3107 3107 3107 3107 3107 3106 3106 3105 3105 3104 3104 3103 3102 3101 3101 3100 3099 3098 3097 3095 3094 3093 3092 3090
3027 3030 3032 3035 3038 3042 3046 3049 3052 3055 3057 3059 3062 3064 3066 3068 3069 3070 3072 3074 3076 3078 3080 3083 3085 3086 3087 3089 3090 3092 3093 3095 3096 3097 3099 3100 3101 3102 3104 3105 3105 3106 3106 3107 3107 3107 3108 3108 3108 3108 3109 3109 3108 3108 3108 3108 3107 3107 3106 3106 3106 3105 3105 3105 3104 3104 3104 3104 3103 3102 3102 3101 3101 3100 3099 3098 3098 3097 3096 3095 3093 3092 3091 3090 3088
3021 3023 3026 3029 3033 3037 3041 3044 3047 3050 3052 3055 3058 3060 3062 3063 3064 3066 3068 3069 3071 3073 3076 3079 3081 3082 3083 3084 3086 3087 3089 3091 3093 3094 3095 3096 3097 3098 3100 3101 3101 3102 3102 3103 3103 3103 3104 3104 3105 3105 3105 3105 3106 3105 3105 3105 3104 3104 3104 3103 3103 3102 3102 3102 3102 3102 3102 3102 3101 3100 3100 3099 3099 3098 3097 3096 3095 3095 3094 3093 3091 3090 3089 3088 3086
3014 3017 3020 3024 3027 3031 3034 3038 3041 3044 3047 3050 3053 3056 3057 3058 3060 3062 3064 3065 3067 3070 3073 3075 3076 3077 3078 3080 3082 3083 3085 3087 3089 3090 3091 3092 3093 3095 3096 3097 3097 3097 3098 3098 3099 3100 3100 3101 3102 3102 3102 3102 3103 3102 3102 3102 3102 3101 3101 3100 3100 3099 3099 3099 3099 3099 3099 3099 3099 3098 3097 3097 3096 3096 3095 3094 3093 3092 3091 3090 3089 3088 3087 3085 3084
3009 3011 3014 3018 3021 3024 3027 3031 3035 3039 3042 3046 3049 3051 3052 3054 3056 3058 3060 3061 3064 3066 3068 3069 3071 3072 3074 3076 3077 3079 3081 3083 3085 3086 3087 3089 3090 3091 3092 3092 3092 3093 3094 3095 3096 3096 3097 3098 3098 3098 3099 3099 3099 3099 3099 3099 3099 3099 3098 3098 3097 3097 3096 3096 3096 3096 3097 3097 3096 3095 3095 3094 3094 3094 3093 3092 3091 3090 3089 3088 3087 3086 3085 3083 3082
3005 3007 3009 3012 3015 3017 3021 3025 3029 3034 3038 3041 3044 3046 3048 3049 3051 3054 3056 3058 3060 3061 3063 3064 3066 3068 3070 3072 3073 3074 3076 3079 3080 3082 3084 3085 3086 3087 3087 3088 3089 3090 3091 3092 3092 3093 3094 3095 3095 3095 3095 3096 3096 3096 3096 3096 3096 3096 3095 3095 3095 3094 3093 3093 3093 3094 3094 3094 3093 3093 3092 3092 3092 3091 3091 3090 3089 3088 3087 3086 3085 3084 3083 3081 3080
3002 3003 3005 3007 3009 3013 3017 3021 3025 3029 3033 3036 3038 3040 3043 3045 3047 3050 3052 3054 3055 3057 3058 3060 3061 3063 3065 3067 3068 3070 3072 3075 3077 3078 3080 3080 3082 3083 3083 3084 3085 3086 3087 3088 3089 3090 3091 3091 3092 3092 3092 3093 3093 3093 3093 3093 3093 3093 3092 3092 3091 3091 3090 3090 3090 3091 3091 3091 3090 3090 3090 3089 3089 3089 3088 3087 3086 3086 3085 3083 3082 3081 3080 3079 3078
2998 3000 3002 3004 3006 3010 3013 3017 3021 3024 3027 3029 3032 3035 3038 3041 3043 3045 3047 3049 3050 3052 3054 3055 3057 3058 3060 3062 3064 3066 3068 3071 3072 3074 3075 3076 3078 3079 3079 3081 3082 3082 3083 3084 3085 3086 3087 3088 3088 3089 3089 3089 3090 3090 3090 3090 3090 3090 3089 3089 3088 3088 3087 3087 3088 3088 3088 3088 3088 3087 3087 3087 3087 3086 3086 3085 3084 3083 3082 3081 3080 3079 3078 3077 3076
2995 2996 2998 3001 3004 3007 3010 3013 3016 3019 3021 3024 3027 3031 3034 3036 3038 3040 3042 3044 3045 3047 3049 3050 3051 3053 3055 3057 3059 3061 3063 3065 3067 3069 3071 3072 3074 3075 3075 3077 3078 3079 3080 3081 3082 3083 3084 3084 3085 3086 3086 3086 3087 3087 3087 3087 3087 3087 3086 3086 3086 3085 3085 3085 3085 3085 3086 3085 3085 3085 3085 3085 3084 3084 3083 3083 3081 3080 3079 3079 3078 3077 3076 3075 3073
2991 2993 2995 2998 3001 3003 3006 3009 3011 3014 3017 3020 3023 3026 3029 3031 3033 3035 3037 3039 3041 3043 3045 3045 3046 3048 3050 3052 3054 3056 3058 3060 3062 3064 3066 3068 3070 3071 3071 3073 3074 3075 3076 3077 3079 3080 3081 3081 3082 3082 3083 3083 3084 3084 3084 3084 3084 3083 3083 3083 3082 3082 3082 3082 3082 3083 3083 3083 3083 3082 3082 3082 3082 3081 3081 3080 3079 3078 3077 3076 3076 3075 3074 3073 3071
2987 2989 2991 2993 2996 2999 3001 3004 3007 3009 3012 3015 3019 3022 3024 3026 3028 3031 3032 3035 3037 3039 3040 3040 3041 3043 3045 3047 3049 3052 3053 3055 3057 3060 3063 3065 3066 3067 3068 3069 3070 3072 3073 3074 3076 3077 3077 3078 3078 3079 3079 3080 3080 3080 3081 3081 3081 3080 3080 3080 3079 3079 3079 3079 3080 3080 3081 3080 3080 3080 3080 3079 3079 3079 3079 3078 3077 3076 3075 3074 3074 3073 3072 3071 3069
2984 2985 2987 2989 2991 2994 2997 2999 3002 3004 3008 3011 3015 3018 3020 3022 3025 3027 3029 3031 3033 3034 3034 3035 3036 3038 3040 3042 3045 3047 3048 3050 3054 3056 3058 3060 3061 3062 3063 3064 3066 3068 3070 3071 3072 3073 3074 3074 3075 3075 3076 3076 3077 3077 3077 3077 3077 3077 3077 3077 3077 3076 3076 3076 3077 3078 3078 3077 3077 3077 3077 3077 3076 3076 3076 3076 3075 3074 3073 3072 3072 3071 3070 3069 3068
2981 2982 2984 2986 2988 2991 2993 2995 2997 3001 3004 3008 3011 3014 3016 3018 3021 3023 3025 3026 3027 3028 3029 3030 3032 3034 3036 3037 3038 3041 3044 3047 3050 3052 3053 3054 3056 3057 3058 3060 3063 3065 3067 3068 3069 3069 3070 3071 3071 3071 3072 3073 3073 3073 3073 3074 3074 3074 3075 3075 3074 3074 3074 3074 3074 3075 3075 3075 3075 3075 3075 3074 3074 3074 3074 3073 3073 3072 3071 3070 3069 3069 3068 3067 3066
2978 2980 2982 2984 2986 2989 2991 2993 2996 2999 3002 3005 3008 3010 3012 3014 3016 3019 3021 3022 3023 3024 3026 3028 3029 3031 3032 3033 3035 3038 3042 3044 3046 3047 3048 3049 3051 3053 3054 3056 3059 3062 3064 3065 3066 3066 3067 3067 3067 3068 3068 3069 3070 3070 3070 3070 3071 3071 3072 3072 3071 3071 3071 3071 3071 3072 3072 3072 3072 3072 3072 3071 3071 3071 3071 3070 3070 3069 3068 3068 3067 3066 3066 3065 3064
2976 2978 2980 2982 2984 2987 2989 2992 2994 2997 3000 3003 3005 3008 3009 3011 3013 3015 3017 3019 3020 3022 3024 3025 3027 3028 3029 3031 3033 3036 3038 3040 3042 3044 3045 3046 3048 3051 3052 3053 3056 3060 3062 3063 3063 3064 3063 3063 3064 3065 3066 3066 3066 3066 3067 3067 3067 3068 3068 3068 3068 3068 3068 3068 3069 3069 3069 3069 3070 3069 3069 3069 3069 3069 3068 3068 3067 3066 3066 3065 3065 3064 3063 3063 3062
2974 2975 2978 2980 2983 2985 2987 2989 2992 2995 2997 3000 3002 3004 3005 3006 3008 3010 3013 3015 3016 3018 3019 3021 3022 3023 3025 3028 3030 3032 3034 3036 3038 3040 3042 3044 3047 3049 3050 3052 3054 3057 3058 3059 3060 3060 3060 3060 3061 3062 3063 3063 3063 3063 3064 3064 3064 3064 3065 3065 3065 3065 3065 3065 3066 3066 3066 3066 3067 3067 3066 3066 3066 3066 3065 3065 3064 3064 3064 3063 3062 3062 3061 3060 3060
2972 2973 2975 2977 2980 2982 2984 2987 2989 2991 2993 2996 2998 3000 3001 3002 3004 3006 3008 3010 3011 3012 3014 3015 3016 3018 3021 3023 3025 3027 3029 3031 3034 3036 3038 3041 3043 3045 3047 3048 3050 3052 3053 3055 3056 3056 3056 3058 3059 3060 3060 3060 3060 3060 3061 3061 3061 3061 3061 3061 3061 3062 3062 3063 3063 3063 3063 3063 3064 3064 3064 3064 3063 3063 3063 3062 3062 3062 3061 3061 3060 3059 3059 3058 3057
2971 2973 2974 2975 2977 2979 2981 2983 2985 2987 2989 2991 2993 2995 2997 2998 2999 3001 3003 3005 3006 3007 3009 3010 3012 3014 3016 3018 3021 3023 3025 3028 3030 3032 3034 3037 3040 3042 3044 3045 3046 3048 3050 3051 3052 3052 3054 3056 3056 3056 3057 3057 3057 3058 3058 3058 3058 3058 3058 3058 3058 3059 3059 3059 3060 3059 3060 3060 3060 3060 3061 3061 3060 3060 3060 3059 3059 3059 3059 3058 3057 3057 3056 3055 3055
2969 2971 2972 2974 2975 2977 2978 2979 2981 2982 2985 2987 2989 2991 2993 2993 2995 2997 2999 3000 3001 3002 3004 3006 3008 3009 3011 3014 3016 3019 3022 3024 3026 3028 3030 3033 3036 3038 3040 3042 3044 3045 3046 3047 3048 3050 3052 3053 3053 3053 3054 3054 3054 3054 3054 3054 3054 3054 3054 3055 3055 3056 3056 3056 3056 3056 3056 3057 3057 3057 3058 3058 3058 3058 3057 3057 3057 3056 3056 3055 3055 3054 3054 3053 3052
2966 2968 2970 2972 2974 2975 2976 2977 2978 2979 2981 2984 2985 2987 2989 2990 2991 2992 2994 2995 2996 2996 2998 3001 3003 3004 3007 3009 3012 3015 3017 3019 3021 3024 3026 3029 3031 3034 3037 3039 3041 3041 3042 3043 3045 3047 3048 3049 3050 3051 3051 3051 3051 3051 3051 3051 3051 3051 3051 3052 3052 3053 3053 3053 3053 3053 3054 3054 3055 3055 3055 3055 3055 3055 3055 3055 3054 3054 3053 3053 3052 3052 3051 3051 3051
2963 2965 2967 2968 2970 2972 2973 2974 2975 2977 2978 2980 2981 2983 2984 2985 2986 2987 2988 2989 2990 2991 2993 2996 2998 3001 3003 3005 3007 3010 3012 3015 3017 3019 3020 3023 3026 3029 3032 3034 3035 3036 3038 3040 3042 3044 3045 3046 3047 3048 3048 3048 3048 3047 3047 3048 3048 3048 3048 3049 3049 3049 3049 3049 3050 3050 3051 3051 3052 3052 3053 3053 3053 3053 3052 3052 3051 3051 3051 3050 3050 3049 3049 3049 3049
2960 2961 2963 2964 2966 2967 2969 2970 2972 2973 2974 2975 2977 2978 2979 2980 2981 2982 2983 2984 2984 2987 2990 2993 2995 2997 2999 3000 3003 3005 3007 3011 3013 3014 3015 3018 3022 3025 3027 3029 3031 3033 3036 3039 3041 3042 3042 3043 3044 3044 3044 3044 3044 3044 3044 3044 3044 3045 3045 3046 3046 3046 3046 3046 3047 3047 3048 3049 3049 3050 3050 3050 3050 3050 3049 3049 3049 3049 3048 3048 3047 3047 3046 3046 3046
2956 2957 2959 2960 2961 2963 2964 2965 2967 2968 2970 2971 2972 2973 2974 2975 2976 2977 2978 2978 2980 2984 2987 2990 2991 2992 2994 2995 2998 3000 3003 3007 3008 3010 3013 3017 3020 3021 3023 3026 3029 3031 3034 3036 3038 3039 3039 3040 3040 3040 3040 3040 3041 3041 3041 3041 3041 3042 3042 3042 3043 3043 3043 3043 3044 3045 3045 3046 3047 3047 3047 3047 3047 3047 3046 3046 3046 3046 3046 3045 3045 3044 3044 3044 3044
2951 2953 2954 2956 2957 2958 2960 2961 2962 2964 2965 2966 2967 2968 2969 2971 2972 2973 2974 2975 2977 2980 2982 2984 2985 2987 2989 2991 2994 2997 3000 3003 3005 3007 3011 3014 3016 3018 3020 3023 3026 3028 3031 3032 3033 3034 3035 3036 3036 3036 3036 3037 3037 3037 3037 3037 3038 3038 3039 3039 3039 3040 3040 3041 3041 3042 3043 3044 3044 3044 3044 3044 3044 3044 3044 3043 3043 3043 3043 3043 3042 3042 3042 3042 3042
2947 2949 2950 2951 2953 2954 2955 2956 2958 2959 2960 2961 2963 2964 2965 2966 2968 2969 2969 2971 2973 2974 2976 2978 2980 2982 2984 2987 2991 2995 2998 3001 3003 3006 3009 3011 3013 3016 3018 3021 3023 3025 3027 3029 3029 3030 3031 3032 3032 3033 3033 3033 3033 3033 3034 3035 3035 3035 3035 3036 3036 3036 3037 3038 3038 3039 3040 3041 3041 3041 3041 3041 3041 3041 3041 3041 3041 3041 3040 3040 3040 3039 3039 3040 3040
2943 2944 2945 2947 2948 2949 2950 2951 2952 2954 2955 2956 2958 2959 2960 2961 2962 2964 2965 2966 2968 2969 2972 2974 2976 2977 2980 2985 2990 2993 2996 2998 3001 3004 3007 3010 3012 3014 3016 3019 3021 3022 3024 3025 3026 3027 3027 3028 3029 3029 3029 3030 3031 3031 3031 3031 3032 3032 3032 3032 3033 3033 3034 3034 3035 3036 3036 3037 3038 3038 3038 3038 3038 3038 3038 3038 3038 3038 3038 3038 3037 3037 3037 3037 3037
2939 2940 2941 2942 2943 2944 2945 2946 2947 2948 2950 2951 2953 2954 2955 2956 2957 2959 2961 2961 2963 2965 2968 2971 2973 2975 2979 2983 2988 2990 2992 2995 2998 3001 3005 3008 3010 3012 3014 3016 3017 3019 3020 3021 3022 3023 3023 3024 3025 3026 3026 3027 3028 3028 3028 3028 3029 3029 3029 3029 3030 3030 3031 3031 3032 3032 3033 3033 3034 3034 3035 3035 3035 3035 3035 3035 3035 3035 3035 3035 3035 3035 3035 3035 3035
2937 2937 2937 2938 2939 2940 2941 2941 2942 2943 2945 2946 2948 2949 2950 2951 2953 2955 2956 2957 2959 2961 2964 2968 2971 2974 2978 2981 2984 2987 2990 2993 2995 2999 3002 3005 3007 3009 3011 3012 3013 3015 3016 3017 3018 3019 3020 3021 3022 3022 3023 3024 3025 3025 3026 3026 3026 3026 3026 3026 3026 3027 3027 3027 3028 3029 3029 3030 3030 3031 3031 3032 3031 3031 3031 3031 3031 3032 3032 3032 3032 3032 3032 3032 3033
2936 2935 2935 2935 2936 2937 2937 2937 2938 2939 2940 2941 2943 2944 2946 2947 2949 2950 2952 2954 2956 2958 2961 2965 2969 2972 2976 2979 2982 2985 2988 2991 2993 2996 2999 3001 3003 3005 3006 3008 3009 3010 3012 3013 3014 3015 3016 3017 3018 3018 3019 3021 3022 3022 3022 3023 3023 3023 3023 3023 3023 3024 3024 3024 3024 3025 3026 3026 3027 3027 3028 3028 3028 3028 3028 3028 3028 3028 3029 3029 3029 3029 3030 3030 3030
2937 2936 2936 2935 2935 2934 2934 2934 2934 2935 2936 2937 2939 2941 2942 2943 2945 2947 2949 2951 2954 2957 2960 2964 2968 2971 2974 2977 2980 2983 2986 2988 2991 2994 2996 2998 3000 3002 3003 3004 3005 3006 3007 3009 3011 3012 3012 3013 3014 3015 3016 3017 3018 3019 3019 3020 3020 3020 3020 3020 3020 3020 3021 3021 3021 3022 3022 3023 3023 3024 3025 3025 3025 3025 3025 3025 3025 3025 3025 3026 3026 3026 3027 3027 3027
2938 2937 2937 2936 2936 2935 2934 2934 2934 2934 2934 2935 2938 2940 2941 2942 2944 2946 2948 2951 2954 2957 2960 2964 2967 2971 2974 2976 2978 2981 2983 2986 2989 2991 2994 2996 2997 2999 3000 3001 3003 3003 3005 3006 3007 3008 3009 3009 3010 3011 3012 3014 3015 3016 3016 3017 3017 3017 3017 3017 3017 3017 3017 3017 3018 3018 3019 3020 3020 3021 3021 3022 3022 3022 3022 3022 3022 3022 3022 3023 3023 3024 3024 3024 3025
2939 2938 2938 2938 2937 2937 2937 2936 2936 2936 2936 2937 2940 2941 2942 2943 2945 2948 2950 2953 2955 2958 2961 2964 2967 2971 2973 2974 2976 2978 2981 2984 2987 2989 2991 2993 2994 2995 2997 2998 2999 3000 3002 3003 3004 3004 3005 3005 3006 3008 3009 3010 3011 3012 3013 3014 3014 3014 3014 3014 3014 3014 3014 3014 3014 3015 3016 3017 3017 3018 3018 3018 3018 3018 3018 3018 3018 3019 3019 3019 3020 3020 3021 3021 3022
2940 2940 2940 2939 2939 2939 2939 2938 2938 2938 2939 2940 2942 2943 2945 2946 2948 2951 2953 2955 2957 2960 2962 2965 2967 2970 2971 2972 2974 2977 2979 2981 2983 2985 2987 2989 2991 2992 2993 2995 2996 2997 2998 2999 3000 3001 3001 3002 3003 3005 3005 3007 3008 3009 3010 3010 3011 3011 3011 3010 3010 3010 3010 3011 3011 3012 3013 3014 3014 3014 3015 3015 3015 3015 3015 3015 3015 3015 3016 3016 3017 3017 3018 3019 3019
2941 2941 2941 2941 2941 2940 2940 2940 2941 2941 2942 2943 2944 2946 2947 2948 2950 2952 2953 2955 2957 2960 2962 2964 2966 2968 2969 2970 2973 2975 2977 2978 2980 2982 2984 2986 2987 2989 2991 2992 2993 2994 2995 2996 2997 2998 2998 2999 3000 3001 3002 3003 3004 3005 3006 3007 3007 3007 3007 3007 3006 3006 3007 3007 3008 3009 3010 3010 3011 3011 3011 3011 3011 3011 3011 3011 3011 3012 3012 3013 3014 3014 3015 3016 3016
2941 2942 2942 2942 2942 2941 2941 2941 2942 2943 2944 2945 2946 2947 2948 2949 2950 2952 2953 2955 2957 2959 2960 2962 2964 2966 2967 2969 2971 2973 2974 2976 2978 2979 2981 2983 2985 2986 2988 2989 2991 2992 2992 2993 2994 2995 2995 2996 2997 2997 2998 2999 3000 3001 3002 3003 3003 3003 3003 3003 3003 3003 3004 3004 3005 3006 3006 3007 3007 3008 3008 3008 3008 3008 3007 3007 3008 3008 3009 3010 3010 3011 3012 3012 3013
2941 2942 2942 2942 2942 2942 2942 2942 2942 2943 2945 2946 2946 2947 2948 2949 2950 2951 2953 2954 2956 2957 2959 2960 2962 2963 2965 2967 2968 2970 2972 2974 2975 2977 2979 2980 2982 2984 2985 2986 2987 2989 2989 2990 2991 2992 2992 2993 2993 2994 2995 2996 2997 2998 2998 2999 2999 2999 2999 3000 3000 3000 3001 3001 3002 3002 3003 3003 3003 3004 3004 3004 3004 3004 3004 3004 3004 3005 3005 3006 3007 3008 3008 3009 3009
2941 2941 2941 2941 2942 2942 2942 2942 2943 2944 2944 2945 2946 2947 2948 2948 2949 2950 2952 2953 2955 2956 2958 2959 2960 2962 2964 2966 2967 2969 2971 2972 2974 2975 2977 2978 2979 2980 2982 2983 2984 2985 2986 2987 2988 2989 2989 2990 2991 2991 2992 2993 2993 2994 2995 2995 2996 2996 2996 2997 2997 2998 2998 2998 2999 2999 2999 2999 3000 3000 3000 3000 3000 3000 3000 3001 3001 3002 3002 3003 3003 3004 3005 3005 3006